This is the latest recevied weather packets stored in our database for station/object DN9EM-2. If no packets are shown the sender has not sent any weather packets the latest 10 day(s).
| Time | Temp. | Humidity | Pressure | Rain* | Wind** | Luminosity | Snow |
|---|---|---|---|---|---|---|---|
| 1777731027 | 26.67° C | 38% | 1017.3 hPa | 0 mm | - | - | - |
| 1777730424 | 26.67° C | 37% | 1017.3 hPa | 0 mm | - | - | - |
| 1777729821 | 26.67° C | 37% | 1017.4 hPa | 0 mm | - | - | - |
| 1777729219 | 26.67° C | 37% | 1017.5 hPa | 0 mm | - | - | - |
| 1777728616 | 26.67° C | 36% | 1017.6 hPa | 0 mm | - | - | - |
| 1777728074 | 27.22° C | 35% | 1017.6 hPa | 0 mm | - | - | - |
| 1777727471 | 26.67° C | 33% | 1017.8 hPa | 0 mm | - | - | - |
| 1777726868 | 26.11° C | 35% | 1017.8 hPa | 0 mm | - | - | - |
| 1777726266 | 26.67° C | 33% | 1018 hPa | 0 mm | - | - | - |
| 1777725663 | 26.67° C | 34% | 1018.1 hPa | 0 mm | - | - | - |
| 1777725060 | 26.67° C | 33% | 1018.3 hPa | 0 mm | - | - | - |
| 1777724458 | 26.67° C | 34% | 1018.3 hPa | 0 mm | - | - | - |
| 1777723855 | 26.67° C | 35% | 1018.4 hPa | 0 mm | - | - | - |
| 1777723252 | 26.67° C | 34% | 1018.5 hPa | 0 mm | - | - | - |
| 1777722650 | 26.67° C | 36% | 1018.5 hPa | 0 mm | - | - | - |
| 1777722047 | 26.67° C | 36% | 1018.7 hPa | 0 mm | - | - | - |
| 1777721444 | 26.11° C | 36% | 1018.8 hPa | 0 mm | - | - | - |
| 1777720842 | 26.11° C | 37% | 1018.9 hPa | 0 mm | - | - | - |
| 1777720239 | 25.56° C | 38% | 1019 hPa | 0 mm | - | - | - |
| 1777719636 | 25.56° C | 39% | 1019.1 hPa | 0 mm | - | - | - |
| 1777719034 | 25° C | 39% | 1019.2 hPa | 0 mm | - | - | - |
| 1777718435 | 24.44° C | 41% | 1019.2 hPa | 0 mm | - | - | - |
| 1777717829 | 24.44° C | 42% | 1019.5 hPa | 0 mm | - | - | - |
| 1777717226 | 24.44° C | 42% | 1019.6 hPa | 0 mm | - | - | - |
| 1777716623 | 23.89° C | 42% | 1019.8 hPa | 0 mm | - | - | - |
* Rain latest hour (hover to see other rain measurements)
** Current wind speed in m/s (hover to see current wind gust speed)